User: anonymous   Login
Location: Unspecified
(0.0000°N, 0.0000°E)
Time: 19:39:01
(UTC+00:00)
Language:

MUOS 3 - Orbit

View from above orbital plane
View from above orbital plane
View from above satellite
View from above satellite

Ground track
Ground track

The orbit data is extracted from the following two-line orbital elements,

1 40374U 15002A   18108.39566124 0.00000000  00000-0  00000-0 0    03
2 40374   3.7182 333.3940 0052786 176.8376 183.1456  1.00270000    00
Epoch (UTC): 18 April 2018 09:29:45
Eccentricity: 0.0052786
inclination: 3.7182°
perigee height: 35564 km
apogee height: 36009 km
right ascension of ascending node: 333.3940°
argument of perigee: 176.8376°
revolutions per day: 1.00270000
mean anomaly at epoch: 183.1456°
orbit number at epoch: 0

The dashed part of the orbit path shows where the satellite is in the earth's shadow,  

DLR